Theta_e
310 311 311 311 312 312 313 313 313 313 313 313 312 312 312 312 311 312 313 311 312 311 311 313 313 316 318 319 321 323 325 328 328 332 334 334 338 338 337 336 334 334 355 355 352
310 310 310 311 311 311 312 312 312 312 313 313 313 312 311 311 312 313 313 312 310 312 312 312 314 315 318 319 320 323 325 325 327 329 330 333 334 337 336 333 331 334 356 354 352
310 310 311 311 311 311 311 311 311 311 312 312 312 312 311 311 315 315 314 313 312 311 311 311 312 316 318 319 320 322 325 325 326 329 330 334 335 335 328 332 331 332 339 356 352
308 309 310 311 311 311 310 311 311 311 311 311 312 312 311 313 320 312 308 308 313 312 311 312 313 314 318 318 319 321 323 325 327 328 331 331 332 328 328 330 330 331 334 342 354
308 308 308 309 309 309 310 310 310 310 310 311 311 311 313 317 317 315 313 313 316 313 312 313 314 314 316 318 318 320 322 325 324 328 328 331 327 327 327 328 328 327 328 333 348
308 308 308 307 308 308 309 309 310 310 310 310 310 310 314 319 317 317 317 316 315 313 311 313 313 315 315 317 318 319 321 324 327 328 328 329 331 327 327 328 331 327 327 328 341
310 309 308 308 307 307 308 308 309 309 309 309 310 312 315 317 318 318 315 314 316 316 313 313 313 315 316 316 317 318 320 323 329 329 329 329 327 327 327 328 330 332 328 329 328
309 309 308 308 307 306 306 307 307 308 309 310 311 313 315 314 316 317 317 315 315 319 316 313 313 315 316 317 317 317 320 330 330 330 330 329 331 331 329 329 329 333 331 330 328
310 309 308 308 307 305 305 306 306 307 309 311 313 315 317 315 315 317 318 316 318 320 317 314 313 314 316 316 316 317 329 332 331 330 329 331 331 331 330 332 330 333 333 331 328
308 309 309 309 306 305 303 304 307 308 310 312 314 316 315 316 318 319 319 317 315 321 317 314 314 314 316 317 317 316 322 331 332 330 328 330 334 331 331 332 332 332 331 330 331
307 308 309 308 305 304 304 306 310 314 313 315 316 317 313 318 320 320 319 317 315 320 317 315 315 315 315 317 316 316 326 327 329 326 331 332 336 333 330 333 332 330 329 329 330
304 303 304 304 304 303 305 306 309 309 312 314 316 317 315 315 320 320 319 317 316 322 318 316 317 316 316 316 316 317 325 330 329 328 331 333 336 329 327 332 332 330 328 328 326
302 302 302 302 303 304 309 310 311 311 313 314 314 317 317 317 319 320 317 316 317 322 318 316 315 315 315 315 316 317 321 327 327 327 328 330 336 324 323 324 330 329 329 329 326
301 302 302 302 304 307 307 308 310 313 317 316 315 315 317 317 319 321 317 316 320 322 318 316 314 314 314 315 316 318 320 322 321 320 323 326 320 324 323 322 325 329 328 326 326
300 300 300 301 303 305 306 306 308 311 320 312 315 317 315 318 319 322 318 317 320 319 317 315 315 314 314 315 316 318 318 319 321 321 322 321 321 322 324 322 321 325 325 325 325
300 300 301 303 304 305 307 307 310 316 319 314 319 320 319 318 319 322 320 318 318 317 317 316 316 315 315 315 316 317 317 318 320 321 322 324 322 321 324 323 324 324 324 324 325
300 301 302 303 305 304 306 308 315 317 310 314 320 321 321 319 319 321 321 319 319 318 318 317 316 316 316 315 316 316 319 323 321 321 323 323 323 324 326 324 323 324 324 323 328
301 302 304 306 307 307 306 309 312 308 310 315 319 317 322 319 318 322 321 318 317 317 318 318 318 316 317 316 317 317 320 323 323 323 321 321 324 324 325 325 325 323 324 329 328
302 306 308 310 309 308 310 312 310 311 309 315 317 318 321 320 319 324 321 317 316 317 319 318 317 318 318 317 317 317 320 321 323 323 322 321 325 327 325 325 325 326 329 328 329
305 307 311 312 310 310 312 312 309 309 309 312 319 320 328 322 321 326 324 318 315 318 320 319 320 319 318 318 318 320 320 322 324 327 334 324 327 327 328 327 328 329 329 329 330
306 309 311 309 309 311 314 311 310 310 310 309 314 313 313 327 322 327 324 319 317 318 320 320 323 322 319 319 319 320 321 321 324 326 330 331 333 329 329 328 329 329 329 328 327
307 310 311 309 311 309 313 312 312 314 315 312 315 315 322 323 328 329 326 320 318 319 320 320 323 326 320 319 320 321 321 324 327 328 326 334 333 328 329 327 329 328 327 326 326
309 310 312 309 314 314 312 314 315 316 316 315 316 321 318 319 322 328 326 320 318 318 321 324 324 329 327 320 320 320 320 323 327 331 329 329 334 329 331 329 328 328 327 326 326
310 313 312 312 311 309 312 315 316 317 319 318 320 319 323 324 320 326 326 321 318 318 324 326 326 328 328 322 321 322 322 323 327 329 327 330 333 331 332 331 329 328 326 326 325
312 312 310 312 312 312 313 314 315 319 321 322 321 319 324 324 321 325 327 324 321 321 320 325 330 330 330 328 323 322 324 322 325 326 326 332 335 334 331 331 328 329 326 325 324
311 310 309 309 311 313 313 312 313 315 321 322 323 319 319 323 319 321 329 326 324 321 323 324 331 328 327 326 327 325 322 323 326 330 330 330 329 331 330 329 329 327 325 323 323
307 307 308 309 312 312 310 309 310 313 319 320 318 317 317 318 317 317 325 326 324 324 325 329 329 329 328 325 327 330 323 325 327 330 329 329 325 328 326 328 327 322 321 320 321
Wind_Speed
17 17 18 19 20 18 17 17 17 17 17 16 16 16 15 14 16 17 25 21 17 24 5 8 20 22 22 20 22 21 16 18 27 25 22 23 18 10 15 16 8 3 17 17 26
18 18 18 19 19 19 19 19 19 17 17 17 17 17 17 17 19 29 33 29 23 18 23 17 17 22 18 22 19 20 17 26 23 23 13 5 10 19 14 9 9 11 21 25 27
18 19 18 19 19 18 19 20 19 18 17 16 16 16 18 14 14 13 10 32 35 28 19 23 22 23 25 20 25 25 23 22 25 19 10 5 9 23 26 16 14 13 10 17 21
18 18 18 19 19 19 19 19 19 19 19 18 17 14 14 10 7 7 9 3 35 28 21 24 22 25 26 29 25 27 27 27 24 17 17 11 15 20 19 22 13 12 3 4 20
19 19 19 18 20 20 20 19 19 19 20 18 16 14 12 11 21 19 17 1 18 26 29 23 24 24 27 25 26 29 28 23 28 18 12 22 14 16 21 25 20 16 12 9 7
21 21 21 22 20 21 22 21 21 19 19 19 17 14 12 22 19 25 25 15 16 26 28 27 19 24 24 26 27 26 27 29 19 17 15 22 20 15 21 18 27 18 20 14 11
20 21 22 23 21 20 21 23 22 21 20 21 18 15 16 26 14 17 16 21 25 25 24 34 31 22 24 26 26 27 29 27 13 21 19 24 22 24 22 17 23 29 19 23 16
23 23 24 23 23 23 22 23 24 24 22 20 18 19 15 25 34 40 31 23 26 26 29 29 32 24 25 24 26 30 29 17 22 23 19 20 21 19 19 20 20 22 21 20 23
27 26 24 23 24 25 28 27 27 27 24 18 16 16 15 20 30 42 29 26 20 23 24 29 28 24 23 23 22 25 16 18 20 19 20 25 25 20 20 20 14 20 23 22 22
28 28 27 24 24 26 30 31 28 24 17 15 20 9 14 21 27 31 34 32 19 17 18 24 21 21 22 20 20 22 24 20 22 12 26 23 24 20 19 23 20 18 20 25 26
27 26 28 23 27 28 28 21 9 7 17 13 15 18 28 16 22 23 35 30 25 21 23 27 20 25 32 28 26 25 14 21 22 20 28 27 24 20 22 15 22 17 16 20 22
27 28 27 27 30 32 27 9 22 22 17 31 29 29 42 35 13 19 35 26 27 23 26 22 26 29 28 27 29 30 25 27 27 30 24 25 27 21 19 20 21 21 16 16 20
29 27 27 27 28 30 18 20 28 26 9 19 29 31 34 26 26 21 31 29 29 28 30 27 27 27 28 27 27 28 24 28 26 24 31 26 29 20 22 18 21 18 17 14 20
30 29 27 27 23 13 21 15 18 9 5 16 23 28 31 26 28 23 33 31 17 29 30 26 26 28 28 27 30 24 23 31 17 14 17 27 13 15 21 21 21 20 18 14 16
32 30 28 21 21 22 24 24 15 4 7 13 35 17 23 31 14 29 32 31 25 22 25 29 27 30 30 28 29 26 24 26 21 22 18 19 12 19 22 21 19 20 19 21 22
34 34 32 28 25 22 18 11 4 3 12 12 11 25 23 34 30 28 26 28 25 26 28 27 27 26 29 27 26 23 24 23 16 12 14 17 17 15 20 23 22 22 19 19 19
40 39 39 32 22 20 19 2 4 8 12 18 16 26 27 27 34 31 32 28 25 23 24 29 30 26 29 29 25 28 19 9 10 9 12 16 15 16 23 25 25 20 19 17 9
45 43 32 28 22 18 17 2 12 14 32 22 22 24 20 27 33 25 29 26 28 23 15 20 23 27 22 22 24 24 20 13 16 14 14 16 18 18 11 23 27 22 18 13 10
44 26 20 14 7 12 5 9 10 21 27 16 22 1 20 30 24 23 31 29 27 27 19 19 24 28 25 21 25 22 24 25 18 6 16 16 11 18 20 16 18 22 17 13 12
30 28 6 10 7 10 5 18 17 25 23 9 9 7 6 29 29 24 27 30 29 28 23 14 15 23 26 22 26 24 20 19 2 7 6 13 17 15 19 19 18 17 14 10 10
15 8 6 12 5 2 5 13 17 22 24 17 7 8 22 26 30 25 22 25 29 29 24 15 9 12 24 20 23 14 17 15 13 15 6 4 5 9 18 16 18 19 16 12 9
8 5 7 8 1 1 4 7 12 26 25 7 7 15 5 13 8 12 23 18 26 22 19 11 2 11 22 19 19 20 18 20 11 15 10 7 3 3 13 15 16 18 16 13 10
7 7 2 1 2 3 7 16 24 23 21 16 7 11 7 1 3 20 22 16 27 18 15 9 5 11 18 20 21 21 21 16 15 9 11 5 8 6 16 8 12 14 15 12 8
4 5 4 3 2 4 8 10 17 18 10 4 1 5 3 6 3 8 10 14 19 16 8 7 7 13 11 17 18 17 13 17 14 8 9 3 14 19 21 18 15 14 12 14 6
2 5 7 7 9 13 11 8 16 9 7 7 1 7 5 1 1 4 11 18 19 21 11 6 9 10 4 10 13 15 16 15 14 16 13 12 15 5 10 17 10 14 11 11 9
6 4 5 7 12 17 7 7 8 10 10 8 5 6 3 3 2 5 14 17 22 24 19 7 4 5 3 5 9 17 20 14 4 9 4 12 4 17 8 14 12 8 9 10 8
12 11 2 10 12 12 9 10 12 13 7 5 7 5 4 4 10 14 18 12 22 20 15 12 6 4 3 7 8 11 17 10 14 14 6 6 9 18 19 20 19 7 6 6 11
Wind_Direction
326 326 323 323 320 316 311 309 311 312 310 309 311 309 306 300 289 267 241 227 222 234 246 253 216 224 230 239 243 233 245 239 243 236 250 266 345 300 273 236 295 251 88 114 157
326 324 324 320 319 318 313 309 306 303 303 305 305 309 312 309 293 272 252 236 226 224 225 228 229 208 225 226 228 235 229 240 241 251 302 289 338 270 262 271 256 237 109 128 124
326 325 321 320 319 318 316 311 307 303 296 295 298 302 312 317 293 259 252 237 222 217 219 218 223 210 219 219 220 231 241 227 248 252 319 166 176 253 312 221 229 246 169 152 174
326 320 319 318 316 313 312 309 307 303 298 298 294 294 304 296 257 84 74 23 210 203 215 225 222 224 213 221 221 226 241 244 235 257 316 216 199 286 305 295 2 334 25 297 183
331 327 323 314 312 314 309 305 301 299 296 290 287 290 293 234 246 256 277 308 183 196 205 212 216 214 222 220 223 229 232 233 240 256 322 296 238 260 290 295 326 319 312 279 12
329 329 327 325 319 314 309 306 298 293 290 289 283 279 244 257 258 251 243 195 193 195 209 216 216 216 222 225 226 229 232 239 273 225 246 291 265 259 269 305 318 307 298 289 135
318 319 320 319 318 313 308 303 299 291 286 286 276 257 247 238 265 259 243 221 209 206 208 220 221 218 220 226 228 230 235 227 221 275 231 266 258 250 256 277 293 314 281 300 283
314 312 314 313 314 318 310 299 293 286 281 279 268 252 253 258 256 263 260 251 217 213 217 220 223 231 232 230 225 228 228 207 214 239 221 243 266 268 253 257 285 295 306 291 289
310 308 310 308 310 316 318 304 290 281 276 267 257 230 258 267 232 234 223 234 210 208 212 221 220 225 233 233 230 222 211 204 234 233 237 226 251 257 259 248 246 278 296 303 268
311 307 306 300 307 314 319 306 289 276 261 243 231 197 250 249 227 221 219 211 219 205 202 216 210 215 225 218 220 221 213 198 222 226 225 226 229 236 234 260 209 250 285 294 299
315 312 308 300 310 313 317 320 251 214 219 205 195 223 290 240 217 200 201 198 210 203 203 206 206 209 213 215 222 225 232 222 223 222 244 217 225 227 249 215 213 226 246 272 300
324 322 321 315 311 309 297 252 259 308 288 222 245 225 251 268 277 200 187 196 200 200 201 198 216 205 216 220 218 233 191 219 231 221 217 208 224 225 228 225 221 215 233 273 305
325 324 321 318 315 298 270 258 287 266 257 263 244 230 241 235 246 212 183 194 195 200 200 206 208 206 210 218 222 231 198 229 226 207 210 221 220 217 213 214 215 209 244 274 282
323 319 317 319 301 292 290 332 343 9 246 262 233 241 220 228 234 234 184 194 185 203 202 213 205 210 206 216 219 221 223 230 242 214 218 206 242 216 204 208 208 196 220 208 264
319 315 312 307 287 287 288 305 316 31 272 262 224 212 191 194 176 215 189 197 193 200 206 207 206 206 207 210 221 223 223 218 198 222 217 207 219 261 187 206 202 198 204 206 200
319 314 307 296 272 259 270 282 346 267 242 254 153 181 166 192 217 185 202 203 223 208 204 215 218 208 204 214 215 220 232 227 236 208 225 228 206 232 183 194 191 194 206 215 199
319 312 299 283 265 263 262 199 238 230 232 263 190 164 174 182 207 173 188 194 207 206 214 207 211 216 195 211 204 218 216 197 211 227 230 218 234 250 177 178 188 183 184 213 110
322 316 292 266 254 230 220 151 231 245 238 269 22 325 238 176 199 200 170 194 211 222 214 200 210 203 196 202 203 212 211 202 192 210 223 231 224 230 191 175 173 175 191 125 128
329 317 302 317 235 200 222 223 248 252 269 356 338 229 282 175 192 179 183 194 196 215 222 200 213 196 202 195 204 204 214 226 207 301 206 206 89 62 109 116 144 161 124 129 114
318 302 357 26 11 158 235 237 249 254 283 306 327 293 281 175 189 172 196 192 191 218 231 209 215 189 184 200 214 208 203 232 110 261 269 211 159 147 146 145 131 126 116 107 126
308 323 34 15 5 175 228 238 255 257 258 281 284 282 287 225 186 180 194 181 194 206 221 238 234 208 186 197 208 194 203 219 225 229 230 132 332 292 150 161 144 136 133 145 152
308 310 329 355 109 349 288 263 297 296 292 245 219 271 277 335 164 207 198 181 190 207 210 220 255 200 193 195 215 207 207 206 227 235 258 102 201 35 182 156 135 142 145 143 128
310 291 241 84 316 257 267 280 289 273 264 259 231 280 111 246 10 239 193 173 181 190 208 189 227 169 243 186 206 215 213 219 217 274 252 225 169 104 55 97 117 124 125 117 121
293 329 345 234 9 314 296 304 325 320 292 168 68 314 307 126 150 286 197 151 187 181 250 309 208 198 212 187 192 212 226 206 207 201 250 88 145 151 150 178 165 133 133 138 155
271 349 14 312 326 315 330 308 330 334 28 46 177 242 339 48 244 242 271 160 192 180 211 221 175 217 38 334 203 194 214 222 159 241 228 127 153 15 34 27 144 154 150 137 140
356 351 327 286 309 327 345 335 308 329 354 2 44 29 21 120 212 312 220 173 180 181 207 172 120 88 176 282 291 228 217 229 114 89 55 71 79 151 143 77 360 333 175 162 164
335 333 8 300 338 345 353 335 310 289 358 10 72 79 46 348 299 282 267 171 172 184 189 181 132 138 227 305 259 251 217 210 163 118 77 97 221 152 155 169 191 134 112 147 109